Madison, WI

12:57 PM CST on November 12, 2019 (GMT -0600)
Dane County Regional-Truax

Weather History for KMSN - July, 2019

Change the Weather History Date:

Friday, July 26, 2019

  Actual Average Record
Temperature  
Mean Temperature 76 °F 71 °F  
Max Temperature 82 °F 81 °F 100 °F (1955)
Min Temperature 70 °F 61 °F 46 °F (1977)
Degree Days  
Heating Degree Days 0 0  
Month to date heating degree days 0  
Since 1 June heating degree days 60  
Since 1 July heating degree days 0  
Cooling Degree Days 11 6  
Month to date cooling degree days 178  
Year to date cooling degree days 328  
Since 1 June cooling degree days 298  
Growing Degree Days 26 (Base 50)    
Moisture  
Dew Point 62 °F    
Average Humidity 62    
Maximum Humidity 81    
Minimum Humidity 45    
Precipitation  
Precipitation 0.01 in 0.12 in 2.08 in (1940)
Month to date precipitation 3.55  
Year to date precipitation 19.92  
Snow  
Snow 0.00 in 0.00 in 0.00 in ()
Month to date snowfall 0.0  
Since 1 June snowfall 0.0  
Since 1 July snowfall 0.0  
Snow Depth -    
Sea Level Pressure  
Sea Level Pressure 30.09 in    
Wind  
Wind Speed 9 mph (SSW)    
Max Wind Speed 16 mph    
Max Gust Speed 28 mph    
Visibility 10 miles    
Events Rain    
T = Trace of Precipitation, MM = Missing Value Source: NWS Daily Summary

Daily Weather History Graph

Daily Weather History Graph

Search for Another Location

Airport or City:

Astronomy

Jul. 26, 2019 Rise Set
Actual Time 5:41 AM CDT 8:25 PM CDT
Civil Twilight 5:08 AM CDT 8:58 PM CDT
Nautical Twilight 4:26 AM CDT 9:40 PM CDT
Astronomical Twilight 3:38 AM CDT 10:27 PM CDT
Moon 12:57 AM CDT (7/26) 3:08 PM CDT (7/26)
Length of Visible Light 15h 50m
Length of Day
14h 44m
Waning Crescent, 34% of the Moon is Illuminated
Jul 26
Waning Crescent
Jul 31
New
Aug 7
First Quarter
Aug 15
Full
Aug 23
Last Quarter

Hourly Weather History & Observations

Time (CDT) Temp. Heat Index Dew Point Humidity Pressure Visibility Wind Dir Wind Speed Gust Speed Precip Events Conditions
12:53 AM 72.0 °F - 60.1 °F 66% 30.13 in 10.0 mi South 6.9 mph - N/A   Clear
1:53 AM 71.1 °F - 59.0 °F 66% 30.13 in 10.0 mi South 8.1 mph - N/A   Clear
2:53 AM 71.1 °F - 59.0 °F 66% 30.12 in 10.0 mi South 6.9 mph - N/A   Clear
3:53 AM 71.1 °F - 59.0 °F 66% 30.12 in 10.0 mi South 6.9 mph - N/A   Clear
4:53 AM 72.0 °F - 57.9 °F 61% 30.12 in 10.0 mi SSW 6.9 mph - N/A   Clear
5:53 AM 71.1 °F - 60.1 °F 68% 30.13 in 10.0 mi South 5.8 mph - 0.00 in Rain Light Rain
6:53 AM 70.0 °F - 60.1 °F 71% 30.15 in 10.0 mi SSW 3.5 mph - 0.00 in   Overcast
7:53 AM 70.0 °F - 61.0 °F 73% 30.16 in 10.0 mi SW 6.9 mph - 0.00 in   Overcast
8:53 AM 72.0 °F - 62.1 °F 71% 30.16 in 10.0 mi South 6.9 mph - N/A   Overcast
9:53 AM 71.1 °F - 64.0 °F 78% 30.14 in 10.0 mi SSE 13.8 mph - 0.01 in   Overcast
10:53 AM 71.1 °F - 64.9 °F 81% 30.15 in 10.0 mi South 8.1 mph - 0.00 in   Overcast
11:53 AM 73.9 °F - 64.0 °F 71% 30.14 in 10.0 mi South 11.5 mph - N/A   Mostly Cloudy
12:53 PM 77.0 °F - 63.0 °F 62% 30.12 in 10.0 mi South 15.0 mph 19.6 mph N/A   Mostly Cloudy
1:53 PM 79.0 °F - 63.0 °F 58% 30.09 in 10.0 mi South 11.5 mph 24.2 mph N/A   Mostly Cloudy
2:53 PM 82.0 °F 83.1 °F 63.0 °F 52% 30.08 in 10.0 mi South 13.8 mph - N/A   Mostly Cloudy
3:53 PM 82.9 °F 84.0 °F 63.0 °F 51% 30.06 in 10.0 mi SSW 13.8 mph 27.6 mph N/A   Mostly Cloudy
4:53 PM 82.9 °F 84.4 °F 64.0 °F 53% 30.04 in 10.0 mi South 16.1 mph 23.0 mph N/A   Mostly Cloudy
5:53 PM 82.0 °F 83.4 °F 64.0 °F 54% 30.03 in 10.0 mi SSW 8.1 mph 20.7 mph N/A   Mostly Cloudy
6:53 PM 82.0 °F 83.4 °F 64.0 °F 54% 30.02 in 10.0 mi South 11.5 mph - N/A   Mostly Cloudy
7:53 PM 80.1 °F 81.7 °F 64.0 °F 58% 30.02 in 10.0 mi South 13.8 mph 20.7 mph N/A   Mostly Cloudy
8:53 PM 80.1 °F 81.7 °F 64.0 °F 58% 30.03 in 10.0 mi SSW 8.1 mph - N/A   Mostly Cloudy
9:53 PM 79.0 °F - 64.0 °F 60% 30.04 in 10.0 mi SSW 12.7 mph 20.7 mph N/A   Mostly Cloudy
10:53 PM 79.0 °F - 64.0 °F 60% 30.03 in 10.0 mi SSW 13.8 mph 24.2 mph N/A   Overcast
11:53 PM 78.1 °F - 64.9 °F 64% 30.03 in 10.0 mi SSW 16.1 mph 24.2 mph N/A   Mostly Cloudy